Tracking 31027 objects as of 19-Jul-2025
HD Live streaming from Space Station
objects crossing your sky now

CZ-3B DEB

Track CZ-3B DEB now!


NORAD ID: 40852
Int'l Code: 2011-077AH
Perigee: 892.7 km
Apogee: 41,306.3 km
Inclination: 26.3 °
Period: 755.2 minutes
Semi major axis: 27470 km
RCS: Unknown
Launch date: December 19, 2011
Source: People's Republic of China (PRC)
Launch site: Xichang Space Center, China (XSC)

Note: This is SATELLITE DEBRIS
Your satellite tracking list
STARLINK-31611
Track 1 satellite(s)




NASA's NSSDC Master Catalog

Two Line Element Set (TLE):
1 40852U 11077AH  25193.01002451 -.00000094  00000-0  00000-0 0  9992
2 40852  26.2773 124.4114 7355817 162.0042 253.5644  1.90678872 79863
Source of the keplerian elements: AFSPC